Debrecen, Hungary

6:45 AM CEST on September 29, 2016 (GMT +0200)
Debrecen

Weather History for LHDC - September, 2013

Change the Weather History Date:

Wednesday, September 11, 2013

  Actual Average Record
Temperature  
Mean Temperature 63 °F -  
Max Temperature 70 °F - - ()
Min Temperature 56 °F - - ()
Degree Days  
Heating Degree Days 2    
Growing Degree Days 13 (Base 50)    
Moisture  
Dew Point 58 °F    
Average Humidity 84    
Maximum Humidity 94    
Minimum Humidity 68    
Precipitation  
Precipitation 0.02 in - - ()
Sea Level Pressure  
Sea Level Pressure 29.92 in    
Wind  
Wind Speed 4 mph ()    
Max Wind Speed 13 mph    
Max Gust Speed -    
Visibility 5.5 miles    
Events Rain    
T = Trace of Precipitation, MM = Missing Value Source: Averaged Metar Reports

Daily Weather History Graph

Daily Weather History Graph

Search for Another Location

Airport or City:

Trip Planner

Search our weather history database for the weather conditions in past years. The results will help you decide how hot, cold, wet, or windy it might be!

Date:

Astronomy

Sep. 11, 2013 Rise Set
Actual Time 6:05 AM CEST 6:53 PM CEST
Civil Twilight 5:34 AM CEST 7:24 PM CEST
Nautical Twilight 4:57 AM CEST 8:01 PM CEST
Astronomical Twilight 4:18 AM CEST 8:40 PM CEST
Moon 12:41 PM CEST (9/11) 10:05 PM CEST (9/11)
Length of Visible Light 13h 50m
Length of Day
12h 48m
Waxing Crescent, 36% of the Moon is Illuminated
Sep 11
Waxing Crescent
Sep 12
First Quarter
Sep 19
Full
Sep 27
Last Quarter
Oct 5
New

Hourly Weather History & Observations

Time (CEST) Temp. Dew Point Humidity Pressure Visibility Wind Dir Wind Speed Gust Speed Precip Events Conditions
2:00 AM 58 °F 54 °F 82% 29.95 in - ENE 6.7 mph - -  
4:45 AM 57.2 °F 55.4 °F 94% 29.92 in 6.2 mi ENE 5.8 mph - N/A   Overcast
5:45 AM 57.2 °F 55.4 °F 94% 29.92 in 6.2 mi ENE 3.5 mph - N/A   Overcast
6:02 AM 57.2 °F 53.6 °F 88% 29.92 in - ENE 2.3 mph - N/A   Unknown
6:15 AM 57.2 °F 55.4 °F 94% 29.92 in 5.0 mi East 2.3 mph - N/A Rain Light Rain
6:45 AM 57.2 °F 55.4 °F 94% 29.92 in 3.1 mi Calm Calm - N/A Rain Light Rain
7:00 AM - - N/A% - 5.0 mi East 6.9 mph - N/A Rain Light Rain
7:15 AM 57.2 °F 55.4 °F 94% 29.92 in 2.5 mi Calm Calm - N/A Rain Rain
7:17 AM 57.2 °F 55.4 °F 94% 29.92 in 2.5 mi ENE 3.5 mph - N/A Rain Rain
7:45 AM 57.2 °F 55.4 °F 94% 29.92 in - East 2.3 mph - N/A Rain Light Rain
8:00 AM 57 °F 55 °F 92% 29.92 in 3 mi East 2.2 mph - - Rain Light Rain
8:15 AM 57.2 °F 55.4 °F 94% 29.92 in - ESE 5.8 mph - N/A Rain Light Rain
8:45 AM 59.0 °F 57.2 °F 94% 29.92 in 3.1 mi NE 2.3 mph - N/A   Overcast
8:47 AM 59.0 °F 57.2 °F 94% 29.92 in 3.7 mi East 3.5 mph - N/A   Overcast
9:15 AM 59.0 °F 57.2 °F 94% 29.92 in 4.3 mi SSE 2.3 mph - N/A   Overcast
9:45 AM 60.8 °F 57.2 °F 88% 29.92 in 4.3 mi East 2.3 mph - N/A   Overcast
9:49 AM 60.8 °F 57.2 °F 88% 29.92 in 4.3 mi Calm Calm - N/A   Overcast
10:00 AM - - N/A% - 5.0 mi East 6.9 mph - N/A   Overcast
10:15 AM 60.8 °F 59.0 °F 94% 29.92 in 4.3 mi East 3.5 mph - N/A   Mostly Cloudy
10:45 AM 62.6 °F 59.0 °F 88% 29.92 in 4.3 mi East 4.6 mph - N/A   Mostly Cloudy
11:15 AM 64.4 °F 60.8 °F 88% 29.92 in 5.0 mi ESE 3.5 mph - N/A   Mostly Cloudy
11:45 AM 66.2 °F 60.8 °F 83% 29.92 in 5.0 mi East 4.6 mph - N/A   Mostly Cloudy
12:15 PM 66.2 °F 60.8 °F 83% 29.92 in 6.2 mi ESE 5.8 mph - N/A   Mostly Cloudy
12:45 PM 66.2 °F 60.8 °F 83% 29.92 in 6.2 mi ESE 6.9 mph - N/A   Mostly Cloudy
1:00 PM - - N/A% - 6.2 mi East 6.9 mph - N/A   Mostly Cloudy
1:15 PM 66.2 °F 60.8 °F 83% 29.92 in 6.2 mi ESE 6.9 mph - N/A   Mostly Cloudy
1:45 PM 68.0 °F 60.8 °F 78% 29.92 in 6.2 mi ENE 4.6 mph - N/A   Mostly Cloudy
2:00 PM 67 °F 60 °F 72% 29.91 in 12 mi ENE 4.5 mph - -   Partly Cloudy
2:15 PM 68.0 °F 60.8 °F 78% 29.92 in 6.2 mi East 1.2 mph - N/A   Mostly Cloudy
2:45 PM 69.8 °F 60.8 °F 73% 29.92 in 6.2 mi East 2.3 mph - N/A   Scattered Clouds
3:15 PM 69.8 °F 59.0 °F 68% 29.92 in 6.2 mi South 2.3 mph - N/A   Scattered Clouds
3:45 PM 69.8 °F 60.8 °F 73% 29.92 in 6.2 mi ESE 2.3 mph - N/A   Scattered Clouds
4:15 PM 69.8 °F 60.8 °F 73% 29.92 in 6.2 mi West 5.8 mph - N/A   Mostly Cloudy
4:45 PM 68.0 °F 60.8 °F 78% 29.92 in 6.2 mi West 10.4 mph - N/A   Scattered Clouds
5:15 PM 66.2 °F 59.0 °F 78% 29.92 in 6.2 mi WNW 12.7 mph - N/A   Scattered Clouds
5:45 PM 66.2 °F 59.0 °F 78% 29.92 in 6.2 mi WNW 9.2 mph - N/A   Mostly Cloudy
6:15 PM 66.2 °F 59.0 °F 78% 29.92 in 6.2 mi WNW 10.4 mph - N/A   Partly Cloudy
6:45 PM 64.4 °F 59.0 °F 83% 29.92 in 6.2 mi West 5.8 mph - N/A   Scattered Clouds
7:15 PM 64.4 °F 57.2 °F 77% 29.95 in 6.2 mi West 8.1 mph - N/A   Scattered Clouds
7:45 PM 62.6 °F 57.2 °F 82% 29.95 in 6.2 mi West 10.4 mph - N/A   Scattered Clouds
8:00 PM 63 °F 58 °F 78% 29.94 in 7 mi West 11.2 mph - -   Partly Cloudy
8:15 PM 62.6 °F 57.2 °F 82% 29.95 in 6.2 mi West 9.2 mph - N/A   Scattered Clouds
8:45 PM 62.6 °F 55.4 °F 77% 29.95 in 6.2 mi West 8.1 mph - N/A   Mostly Cloudy
9:00 PM - - N/A% - - North - - N/A   Unknown